Preview of NWS' New Version of Forecast
This preview is not operational and should not be used for support decisions.

Regional Weather Roundup (RWR)

Issued by National Weather Service (NWS)

                            
000
ASUS44 KJAN 200810
RWRMS 

MISSISSIPPI HOURLY WEATHER ROUNDUP
NATIONAL WEATHER SERVICE JACKSON MS
200 AM CST WED FEB 20 2019

NOTE: "FAIR: INDICATES FEW OR NO CLOUDS BELOW 12,000 FEET WITH NO
SIGNIFICANT WEATHER AND/OR OBSTRUCTIONS TO VISIBILITY.

MSZ001>002-007>008-010>013-018>021-025>028-034>036-200900-
NORTHWEST MISSISSIPPI
  
CITY           SKY/WX    TMP DP  RH WIND       PRES   REMARKS
BATESVILLE     RAIN      52  50  93 SE14G28   29.77F                  
CLARKSDALE     CLOUDY    46  46 100 NW12      29.85R FOG              
CLEVELAND      TSTM      48  48 100 NW10      29.85R                  
GREENWOOD      CLOUDY    57  55  93 S20G30    29.81F                  
GREENVILLE     LGT RAIN  49  48  97 NW9       29.83S                  
OLIVE BRANCH   CLOUDY    45 N/A N/A NW6       29.87R FOG              
OXFORD         CLOUDY    48  48 100 SE22G31   29.84S                  
TUNICA         HVY RAIN  37  37 100 N13       29.89R WCI  29          
WINONA         CLOUDY    53  53 100 SE10G16   29.84S THUNDER          
$$

MSZ003>006-009-014>017-022>024-029>033-037>039-200900-
NORTHEAST MISSISSIPPI
  
CITY           SKY/WX    TMP DP  RH WIND       PRES   REMARKS
ABERDEEN       CLOUDY    50  50 100 SE14G21   29.91F FOG              
COLUMBUS AFB   CLOUDY    51  49  94 SE18G24   29.90F                  
CORINTH        CLOUDY    50  46  87 S16G22    29.84S                  
GOLDN TRIANGLE   N/A    N/A N/A N/A MISG        N/A                   
STARKVILLE     CLOUDY    50  48  93 SE13G23   29.92F                  
TUPELO         CLOUDY    49  47  93 S18G25    29.88F FOG              
$$

MSZ040-058-200900-
CENTRAL MISSISSIPPI
  
CITY           SKY/WX    TMP DP  RH WIND       PRES   REMARKS
JACKSON INTL   CLOUDY    59  57  93 S14       29.87R FOG              
JACKSON HAWKNS CLOUDY    59  59 100 SE9       29.85S FOG              
MADISON        CLOUDY    59  59 100 S7        29.86R                  
MERIDIAN KEY   CLOUDY    59  55  87 SE6       29.95F                  
MERIDIAN NAS   LGT RAIN  55  53  93 SE9       29.95F                  
RAYMOND        CLOUDY    61  61 100 SE9G22    29.83F                  
VICKSBURG VKS  CLOUDY    61  61 100 S14G22    29.81S                  
$$

MSZ059>079-200900-
SOUTH MISSISSIPPI
  
CITY           SKY/WX    TMP DP  RH WIND       PRES   REMARKS
HATTIESBURG    LGT RAIN  57  56  96 W7        29.94S FOG              
LAUREL         CLOUDY    62  62 100 SE5       29.94S VSB 1/2          
MCCOMB         LGT RAIN  65  63  93 SE8       29.87S VSB 1            
NATCHEZ        CLOUDY    66  65  96 S17       29.82F                  
PINE BELT      LGT RAIN  62  62 100 SE8       29.93F VSB 1/2          
$$

MSZ080>082-200900-
COASTAL MISSISSIPPI
  
CITY           SKY/WX    TMP DP  RH WIND       PRES   REMARKS
BILOXI         CLOUDY    70  70 100 SE14G21   29.95S FOG              
PASCAGOULA     CLOUDY    70  68  93 SE10      29.97S FOG              
GULFPORT       FOG       68  67  96 SE15      29.94S VSB 3/4          
$$

LAZ007>009-015>016-023>026-200900-
NORTHEAST LOUISIANA
  
CITY           SKY/WX    TMP DP  RH WIND       PRES   REMARKS
BASTROP        CLOUDY    46  46  98 NW9       29.85R                  
TALLULAH/VBURG LGT RAIN  59  58  96 S14       29.81S                  
VIDALIA        DRIZZLE   65  64  97 SE14      29.80F                  
$$